Satellite-Ground Cal/Val Region Overpasses Predictions

Prediction of Satellite NPP Overpassing Cal/Val Region: PacNW

Region Location: (Latitude: 10.00, Longitude: 139.50) to (Latitude: 22.70, Longitude: 165.60).

Table of predicted overpasses for the next 14.0 days since TLE Epoch: 7/2/2012
Interval Starting Time Starting Location Ending Time Ending Location
1 07/02/2012 15:15:36 ( 22.69, 155.60) 07/02/2012 15:19:12 ( 10.01, 152.59)
2 07/03/2012 02:24:41 ( 10.05, 163.12) 07/03/2012 02:28:16 ( 22.68, 160.12)
3 07/03/2012 14:56:34 ( 22.69, 160.35) 07/03/2012 15:00:10 ( 10.01, 157.34)
4 07/04/2012 02:08:25 ( 19.75, 165.60) 07/04/2012 02:09:15 ( 22.68, 164.87)
5 07/04/2012 03:47:09 ( 10.00, 142.51) 07/04/2012 03:50:44 ( 22.63, 139.51)
6 07/04/2012 14:37:33 ( 22.69, 165.11) 07/04/2012 14:41:09 ( 10.01, 162.09)
7 07/04/2012 16:19:03 ( 22.68, 139.73) 07/04/2012 16:19:18 ( 21.80, 139.51)
8 07/05/2012 03:28:08 ( 10.00, 147.27) 07/05/2012 03:31:44 ( 22.69, 144.25)
9 07/05/2012 16:00:01 ( 22.68, 144.49) 07/05/2012 16:03:37 ( 10.00, 141.47)
10 07/06/2012 03:09:06 ( 10.01, 152.02) 07/06/2012 03:12:42 ( 22.69, 149.01)
11 07/06/2012 15:41:00 ( 22.68, 149.24) 07/06/2012 15:44:36 ( 10.00, 146.23)
12 07/07/2012 02:50:05 ( 10.01, 156.77) 07/07/2012 02:53:41 ( 22.69, 153.76)
13 07/07/2012 15:21:58 ( 22.68, 153.99) 07/07/2012 15:25:34 ( 10.00, 150.98)
14 07/08/2012 02:31:03 ( 10.01, 161.53) 07/08/2012 02:34:39 ( 22.69, 158.51)
15 07/08/2012 15:02:57 ( 22.68, 158.75) 07/08/2012 15:06:33 ( 10.01, 155.74)
16 07/09/2012 02:12:53 ( 13.00, 165.59) 07/09/2012 02:15:38 ( 22.69, 163.27)
17 07/09/2012 03:53:32 ( 10.01, 140.91) 07/09/2012 03:55:15 ( 16.06, 139.50)
18 07/09/2012 14:43:55 ( 22.68, 163.50) 07/09/2012 14:47:31 ( 10.01, 160.49)
19 07/10/2012 03:34:30 ( 10.01, 145.66) 07/10/2012 03:38:06 ( 22.69, 142.65)
20 07/10/2012 14:28:04 ( 11.54, 165.60) 07/10/2012 14:28:30 ( 10.01, 165.25)
21 07/10/2012 16:06:24 ( 22.68, 142.88) 07/10/2012 16:10:00 ( 10.01, 139.87)
22 07/11/2012 03:15:29 ( 10.01, 150.42) 07/11/2012 03:19:05 ( 22.69, 147.40)
23
